FENGYUN 1C DEB

Satellite information

Favourite Embed

Satellite Type and Status

DEBRISIN ORBIT

Key statistics

Satellite FENGYUN 1C DEB at a glance.

Uptime

9493

Days in orbit

Revolutions

≈ 14.3

Per day

Orbit

SSO

Sun Synchronous Orbit

Inclination

98.9

Latest

Satellite identification and parameters

Extended collection of information and parameters for FENGYUN 1C DEB.

Object identification

Identified? True

Debris? True

Object name: FENGYUN 1C DEB

International designator: 1999-025CUT

Object number (NORAD): 32197

Object ID (CCSDS): 32197

Country: PEOPLES REPUBLIC OF CHINA (PRC)

Current information (Y/N): Y

RCS size: SMALL

Orbital parameters

Period: 100.56 minutes

Inclination: 98.9131 deg

SMA: 7163.274 km

Apoapsis: 902.372 km

Periapsis: 667.907 km

RAAN: 23.5104 deg

Eccentricy: 0.0163658

Argument of periapsis: 170.8985 deg

Mean anomaly: 314.9766 deg

Mean motion: 14.31974804 rev/day

Mean motion (dot): 0.00001452 rev/day2

B* drag term: 0.00048307 1/REarth

Two-line elements (TLE)

Creation date: May 2, 2025, 2:33 a.m.

Reference frame: TEME

Reference center: EARTH

Epoch: April 30, 2025, 12:50 p.m. UTC

TLE line 0: 0 FENGYUN 1C DEB

TLE line 1: 1 32197U 99025CUT 25120.53503678 .00001452 00000-0 48307-3 0 9991

TLE line 2: 2 32197 98.9131 23.5104 0163658 170.8985 314.9766 14.31974804911858

Live tracking on map

Real-time ground track for satellite FENGYUN 1C DEB.

In-orbit conjunctions

A list of the most updated potential collisions computed for object FENGYUN 1C DEB.

Target Orbit TCA Probability of collision Miss distance Type
NOAA 16 DEB SSO 2025-03-23 15:26:20 0.0001186217 92.0 (m) DEBRIS
METEOR 1-14 LEO 2024-12-31 16:55:21 0.0001474899 120.0 (m) PAYLOAD

Associated space launch

Chinese polar orbiting meteorological satellite

FENGYUN 1C DEB was lifted into orbit during the mission ‘Long March 4B | Feng Yun 1C’, on board a Long March 4B space rocket.

The launch took place on May 10, 1999, 1:33 a.m. from Launch Complex 7.

For more information about the launch, click the button.

Launch to space Long March 4B | Feng Yun 1C
Long March 4B | Feng Yun 1C

Agency: N/A

Status: Launch Successful

Launch date: May 10, 1999, 1:33 a.m. UTC

Rocket: Long March 4B

Launch pad: Launch Complex 7

Location: Taiyuan Satellite Launch Center, People's Republic of China

...

Latest news about this satellite

There are no fresh news available about this satellite. Check back as we update our databases every day.


Newsletter sign-up

Weekly statistics, charts and insights to help you stay on top of the space industry.